Terug naar catalogus

ARIANE 5 DEB

SYLDA

ActiefHEO
NORAD 39236·DEBRIS·🇫🇷 France

Gelanceerd Aug 29, 2013 vanaf Guiana Space Centre

Loading…

Volgende Passages (komende 24 uur)

TLE

VersSource: Space-Track

Epoch: Sep 14, 2026, 09:35 UTC

1 39236U 13044D   26257.39961599  .00036261  00000-0  53691-2 0  9992
2 39236   3.5480 126.0066 5583736 122.0790 304.2503  4.69132704188611

Volg ARIANE 5 DEB in realtime met AllMySat

Download on the App Store